Location: Eastchurch
(51.4000°N, 0.8667°E)
Time: 23:41:15
(UTC+00:00)

Cosmos 1777 Rocket - Pass Details

Date: 19 January 2026
Orbit: 754 x 771 km, 74.0° (Epoch: 17 February)

Event Time Altitude Azimuth Distance (km) Brightness Sun altitude
Rises 18:47:16 0° 336° (NNW) 3,222 7.5 -21.8°
Reaches altitude 10° 18:49:40 10° 340° (NNW) 2,294 6.6 -22.2°
Maximum altitude 18:54:50 64° 62° (ENE) 843 3.9 -23.0°
Enters shadow 18:55:22 60° 93° (E) 870 3.9 -23.1°
